FW8377 Weather Reports


time (UTC)temp
C
wind
direction
speed
KPH
gust
KPH
rain 1hr
cm
rain 24hr
cm
rain mn
cm
humidity
%
barometer
mb
20260507114524 21 99 3.2 11.3 0.00 1.04 0.56 63 1016.0
20260507113544 21 333 4.8 14.5 0.00 1.04 0.56 65 1016.2
20260507112542 20 8 4.8 11.3 0.00 1.04 0.56 65 1016.1
20260507111541 20 69 4.8 11.3 0.00 1.04 0.56 66 1016.3
20260507110520 20 351 1.6 6.4 0.00 1.04 0.56 67 1016.3
20260507105519 20 240 1.6 4.8 0.00 1.04 0.56 66 1016.4
20260507104518 20 181 6.4 8.0 0.00 1.04 0.56 67 1016.3
20260507103517 20 303 1.6 8.0 0.00 1.04 0.56 67 1016.6
20260507102516 20 179 3.2 8.0 0.00 1.04 0.56 70 1016.6
20260507101635 20 40 6.4 14.5 0.00 1.04 0.56 69 1016.7
20260507100613 19 81 6.4 11.3 0.00 1.04 0.56 72 1016.8
20260507095612 19 74 4.8 14.5 0.00 1.04 0.56 71 1016.9
20260507094612 18 165 3.2 11.3 0.00 1.04 0.56 68 1016.8
20260507093611 18 213 4.8 8.0 0.00 1.04 0.56 70 1016.8
20260507092610 18 181 6.4 11.3 0.00 1.04 0.56 73 1016.9
20260507091609 18 179 4.8 12.9 0.00 1.04 0.56 74 1016.8
20260507090608 18 172 4.8 14.5 0.00 1.04 0.56 74 1016.7
20260507085607 18 11 4.8 11.3 0.00 1.04 0.56 73 1016.9
20260507084626 18 72 3.2 9.7 0.00 1.04 0.56 74 1017.0
20260507083644 17 97 3.2 9.7 0.00 1.04 0.56 75 1017.0
20260507082603 17 36 8.0 12.9 0.00 1.04 0.56 77 1017.2
20260507081602 17 60 6.4 12.9 0.00 1.04 0.56 76 1017.1
20260507080642 18 46 9.7 16.1 0.00 1.04 0.56 74 1017.3
20260507075601 18 284 1.6 8.0 0.00 1.04 0.56 76 1017.2
20260507074600 17 195 3.2 9.7 0.00 1.04 0.56 80 1017.1
20260507073559 17 269 3.2 6.4 0.00 1.04 0.56 80 1017.1
20260507072558 17 250 3.2 8.0 0.00 1.04 0.56 82 1017.2
20260507071617 17 117 4.8 9.7 0.00 1.04 0.56 82 1017.3
20260507070556 16 152 1.6 11.3 0.00 1.04 0.56 83 1017.3
20260507065555 16 172 3.2 8.0 0.00 1.04 0.56 84 1017.2
20260507064553 16 180 3.2 8.0 0.00 1.07 0.56 86 1017.0
20260507063552 15 139 3.2 9.7 0.00 1.07 0.56 87 1017.1
20260507062550 15 120 3.2 9.7 0.00 1.07 0.56 90 1016.9
20260507061549 15 98 3.2 6.4 0.00 1.07 0.56 91 1017.0
20260507060548 14 129 1.6 6.4 0.00 1.09 0.56 92 1017.1
20260507055547 14 91 1.6 4.8 0.00 1.12 0.56 94 1017.0
20260507054547 14 41 3.2 6.4 0.00 1.14 0.56 94 1016.9
20260507053545 13 78 1.6 4.8 0.00 1.17 0.56 96 1016.9
20260507052544 13 192 0.0 3.2 0.00 1.22 0.56 97 1016.8
20260507051543 13 46 1.6 4.8 0.00 1.24 0.56 98 1016.8
20260507050543 14 14 1.6 4.8 0.00 1.24 0.56 99 1016.6
20260507045600 13 307 0.0 4.8 0.00 1.24 0.56 99 1016.6
20260507041539 13 56 1.6 3.2 0.00 1.24 0.56 99 1016.7
20260507040534 13 44 3.2 4.8 0.00 1.24 0.56 99 1016.6
20260507035535 13 28 3.2 4.8 0.00 1.24 0.56 99 1016.6
20260507034532 13 33 3.2 6.4 0.00 1.24 0.56 99 1016.7
20260507033531 13 35 1.6 6.4 0.00 1.24 0.56 99 1016.5
20260507032530 13 47 3.2 6.4 0.00 1.24 0.56 99 1016.5
20260507031529 13 8 4.8 6.4 0.00 1.24 0.56 99 1016.4
20260507030527 13 17 4.8 6.4 0.05 1.24 0.56 99 1016.6
20260507025527 13 27 4.8 6.4 0.08 1.24 0.56 99 1016.6
20260507024526 13 11 3.2 4.8 0.10 1.24 0.56 98 1016.7
20260507023525 13 353 1.6 3.2 0.10 1.24 0.56 98 1016.7
20260507022524 13 15 1.6 4.8 0.10 1.24 0.56 98 1016.9
20260507021522 13 12 3.2 4.8 0.10 1.24 0.53 98 1016.7
20260507020521 13 352 3.2 6.4 0.05 1.19 0.51 98 1016.8
20260507015540 13 9 3.2 6.4 0.03 1.17 0.48 98 1016.7
20260507014519 13 6 3.2 6.4 0.08 1.14 0.46 98 1016.6
20260507013518 13 350 3.2 6.4 0.15 1.14 0.46 97 1016.4
20260507012517 13 330 3.2 11.3 0.18 1.14 0.46 97 1016.4
20260507011516 13 27 1.6 4.8 0.25 1.14 0.46 97 1016.6
20260507010627 13 69 3.2 6.4 0.33 1.14 0.46 97 1016.7
20260507005634 13 68 3.2 8.0 0.38 1.14 0.43 96 1016.7
20260507004612 13 93 6.4 12.9 0.30 1.07 0.38 96 1016.9
20260507003611 13 59 4.8 11.3 0.25 1.02 0.30 96 1017.0
20260507002610 13 73 4.8 9.7 0.20 0.97 0.25 95 1016.8
20260507001609 14 73 6.4 14.5 0.13 0.89 0.18 95 1016.7
20260507000608 14 89 9.7 25.7 0.05 0.81 0.10 95 1016.6
20260506235608 14 68 4.8 9.7 0.00 0.76 0.05 96 1016.8
20260506234605 14 30 1.6 6.4 0.00 0.76 0.05 97 1016.7
20260506233623 14 160 4.8 8.0 0.00 0.76 0.05 97 1016.7
20260506232622 14 146 3.2 8.0 0.00 0.76 0.05 97 1016.6
20260506231601 14 122 3.2 11.3 0.03 0.76 0.05 97 1016.5
20260506230600 14 163 3.2 8.0 0.03 0.76 0.05 97 1016.5
20260506225619 14 0.0 4.8 0.08 0.76 0.05 96 1016.5
20260506224618 14 313 1.6 3.2 0.10 0.76 0.05 95 1016.4
20260506223556 14 0.0 6.4 0.18 0.76 0.05 94 1016.4
20260506222636 14 59 4.8 9.7 0.15 0.76 0.05 94 1016.4
20260506221555 14 56 6.4 9.7 0.15 0.74 0.05 94 1016.5
20260506220554 14 63 11.3 16.1 0.15 0.74 0.03 94 1016.5
20260506215553 14 41 8.0 12.9 0.10 0.69 0.69 95 1016.5
20260506214552 14 45 8.0 16.1 0.08 0.66 0.66 96 1016.6
20260506213551 15 53 6.4 11.3 0.05 0.58 0.58 96 1016.5
20260506212550 15 50 11.3 16.1 0.05 0.58 0.58 97 1016.7
20260506211548 15 50 9.7 16.1 0.05 0.58 0.58 97 1016.7
20260506210607 15 44 8.0 12.9 0.05 0.58 0.58 97 1016.8
20260506205546 15 26 8.0 12.9 0.05 0.58 0.58 98 1016.7
20260506204545 15 42 6.4 9.7 0.03 0.58 0.58 98 1016.7
20260506203545 15 40 4.8 6.4 0.00 0.56 0.56 98 1016.7
20260506202542 15 30 3.2 4.8 0.00 0.56 0.56 98 1016.6
20260506201543 15 53 1.6 4.8 0.00 0.56 0.56 98 1016.7
20260506200540 15 86 0.0 3.2 0.00 0.56 0.56 98 1016.6
20260506195559 15 33 1.6 3.2 0.00 0.56 0.56 97 1016.5
20260506194557 15 308 0.0 3.2 0.00 0.56 0.56 97 1016.6
20260506193537 15 33 3.2 4.8 0.00 0.56 0.56 97 1016.6
20260506192535 15 0 3.2 4.8 0.03 0.56 0.56 97 1016.5
20260506191535 15 10 1.6 4.8 0.05 0.56 0.56 97 1016.4
20260506190533 15 332 3.2 8.0 0.15 0.56 0.56 97 1016.5
20260506185530 15 316 3.2 6.4 0.28 0.56 0.56 97 1016.3
20260506184529 15 296 3.2 8.0 0.33 0.56 0.56 96 1016.2
20260506183528 15 26 4.8 9.7 0.33 0.53 0.53 96 1016.2
20260506182526 15 41 6.4 11.3 0.30 0.51 0.51 96 1016.1
20260506181525 15 34 6.4 9.7 0.28 0.51 0.51 95 1016.1
20260506180523 16 32 9.7 16.1 0.20 0.41 0.41 94 1016.3
20260506175522 16 27 12.9 20.9 0.05 0.25 0.25 90 1016.1
20260506174521 16 26 8.0 14.5 0.03 0.23 0.23 89 1015.8
20260506173540 16 41 6.4 9.7 0.03 0.23 0.23 88 1015.7
20260506172519 17 69 11.3 20.9 0.00 0.20 0.20 84 1015.8
20260506171517 17 39 8.0 14.5 0.00 0.20 0.20 78 1015.7
20260506170535 17 16 14.5 24.1 0.00 0.20 0.20 76 1015.7
20260506165615 18 24 12.9 29.0 0.00 0.20 0.20 76 1015.6
20260506164614 18 12 12.9 22.5 0.00 0.20 0.20 75 1015.6
20260506163612 18 19 12.9 24.1 0.00 0.20 0.20 75 1015.7
20260506162631 18 26 14.5 22.5 0.00 0.20 0.20 74 1015.5
20260506161610 18 15 17.7 30.6 0.00 0.20 0.20 72 1015.6
20260506160609 18 12 19.3 29.0 0.00 0.20 0.20 71 1015.7
20260506155607 18 7 17.7 32.2 0.00 0.20 0.20 70 1015.7
20260506154606 18 19 19.3 33.8 0.00 0.20 0.20 71 1015.6
20260506153605 18 25 17.7 29.0 0.00 0.20 0.20 71 1015.8
20260506152604 18 23 16.1 27.4 0.00 0.20 0.20 71 1015.7
20260506151643 18 16 19.3 33.8 0.00 0.20 0.20 71 1015.6
20260506150601 19 19 17.7 30.6 0.00 0.20 0.20 70 1015.5
20260506145559 18 33 17.7 37.0 0.00 0.20 0.20 71 1015.7
20260506144558 18 29 19.3 38.6 0.00 0.20 0.20 70 1015.7
20260506143557 18 30 17.7 32.2 0.00 0.20 0.20 71 1015.7
20260506142556 19 32 22.5 37.0 0.00 0.20 0.20 69 1015.7
20260506141615 19 45 22.5 40.2 0.00 0.20 0.20 68 1015.7
20260506140614 20 30 20.9 37.0 0.00 0.20 0.20 65 1015.6
20260506135552 20 26 17.7 30.6 0.00 0.20 0.20 65 1015.6
20260506134551 20 33 19.3 46.7 0.00 0.20 0.20 63 1015.5
20260506133550 20 25 20.9 37.0 0.00 0.20 0.20 62 1015.5
20260506132549 20 27 22.5 35.4 0.00 0.20 0.20 63 1015.4
20260506131548 20 54 20.9 32.2 0.00 0.20 0.20 62 1015.5
20260506130607 21 41 19.3 30.6 0.00 0.20 0.20 62 1015.7
20260506125546 20 27 11.3 27.4 0.00 0.20 0.20 64 1015.8
20260506124624 20 29 20.9 30.6 0.00 0.20 0.20 62 1015.9
20260506123543 21 41 20.9 27.4 0.00 0.20 0.20 59 1015.9
20260506122542 21 19 20.9 33.8 0.00 0.20 0.20 55 1015.9
20260506121541 21 12 17.7 29.0 0.00 0.20 0.20 54 1015.8
20260506120539 21 22 16.1 30.6 0.00 0.20 0.20 53 1015.8
20260506115538 21 16 17.7 38.6 0.00 0.20 0.20 52 1016.0